STARLINK-33984, 63830

Orbit data source: Space-Track

STARLINK-33984, 63830 is a payload satellite owned by SpaceX/Seattle (US) in LEO that was launched on Sun, 04 May 2025 UTC via an FALCON 9 launch vehicle from the Air Force Eastern Test Range (AFETR). Payload-class satellites include a variety of spacecraft equipped with specific instruments for various scientific and technological missions. These include communications satellites like Starlink; space stations such as the ISS; scientific satellites like the Hubble; Earth observation satellites from companies like Planet Labs, Umbra, and HawkEye 360; GPS; miniature CubeSats for education and research; and military/defense satellites.

Loading next visibility...
Identifier
63830, 2025-092AC
Orbit
LEO
Country
Flag of USUS
Related business
Manufacturer
SpaceX/Seattle
Mission
Operational Commercial Communications
Bus & Motor
STARLINK V2MO, Unknown motor
Mass
575 kg wet, ~530 kg dry
Launch date (UTC)
2025-05-04 (6 months ago)
Launch vehicle
FALCON 9
Launch site
Air Force Eastern Test Range (AFETR)
Object type
Payload
Rocket body
Debris
Shape & HBR
Box + 2 Pan, 17.7 m
Radar Cross Section
36.964 m², Large (>1 m²)

Expand to show TLE details & history
Last TLE update: 13 hours ago

TLE from 13 hours ago
0 STARLINK-33984
1 63830U 25092AC  25318.46563361  .00026659  00000-0  97490-3 0  9991
2 63830  43.0002 103.1689 0001606 270.0780  89.9887 15.27575502 30995
Epoch: 2025-11-14T11:10Z
TLE epoch observation values (Epoch: 2025-11-14T11:10:30.743Z)
Latitude
-0.00008°
Longitude
-118.26801°
Altitude
482.838 km
Speed
7.626 km/s
True Right ascension
06h 52m 40s
True Declination
0° 00' 00"
Sunlit
Object was in full shadow at epoch
Visualization orbit readout
Latitude
Unknown
Longitude
Unknown
Altitude
Unknown
Speed
Unknown
Apparent Right ascension
Unknown
Apparent Declination
Unknown
Sunlit
N/A
Visualization observer readout
Local Sidereal Time
20:43:02
Azimuth
Unknown
Elevation
Unknown
Doppler factor
Unknown
Orbital elements
Apogee altitude
486.11 km
Perigee altitude
483.905 km
Semi-major axis
6,863.145 km
Eccentricity
0.00016
Inclination
43.0002°
RAAN
103.1689°
Arg. of periapsis
270.078°
True anomaly
90.0071°
Mean anomaly
89.9887°
Eccentric anomaly
89.9979°
Mean motion
3.81732 °/min
Orbital period
94.31 mins
BSTAR
0.0009749
Loading maneuver chart data...
Computing Atmospheric mass density...
Loading historical data...
Loading historical data...
Loading historical data...
Loading historical data...
Loading historical data...
Loading historical data...
Loading historical data...

Documentation

Showing up to 5 results
|